SPACEBEE-60 (47433 NORAD) Tracking and Keplerian Element Data

This shows tracking and keplerian element data for the satellite.

Feedback or suggestion? Click here.




ElementValue
Catalog47433
NameSPACEBEE-60
Epoch Orbit1294
Epoch Day101.92468655
Epoch Year2021
RAAN164.2391
Inclination97.5017
Eccentricity0.0005258
Argument of Perigee356.0918
Mean Anonmoly4.0271
Mean Motion15.1169153
Decay Rate2.344E-05
L11 47433U 21006W 21101.92468655 .00002344 00000-0 14147-3 0 9993
L22 47433 97.5017 164.2391 0005258 356.0918 4.0271 15.11691530 12942

Live tracking and technical data element details for SPACEBEE-60 (NORAD 47433). SPACEBEE-60 can be tracked NOW for your location showing map with azimuth and elevation plus other details from your city location.

Track the satellite on the map from your city or location and see movement details for azimuth, elevation, latitude, longitude, range, height, and movement on the map or in text.







IsCatalogInMostPopularTable: catalog: 47433, numindb: 15
Update: records affected: 1



GetName: 47433 SPACEBEE-60

Hit Count: updated at: Tue, 13 Apr 2021 04:27:03 GMT